Weather History for Opa Locka, FL

Change the Weather History Date:

Friday, September 7, 2012

  Actual Average Record
Temperature  
Mean Temperature 80 °F -  
Max Temperature 88 °F 89 °F 95 °F (1963)
Min Temperature 73 °F 75 °F 70 °F (1953)
Cooling Degree Days 14    
Growing Degree Days 30 (Base 50)    
Moisture  
Dew Point 73 °F    
Average Humidity 81    
Maximum Humidity 97    
Minimum Humidity 67    
Precipitation  
Precipitation 2.33 in - - ()
Sea Level Pressure  
Sea Level Pressure 29.99 in    
Wind  
Wind Speed 4 mph (SSE)    
Max Wind Speed 28 mph    
Max Gust Speed 41 mph    
Visibility 8 miles    
Events Rain , Thunderstorm    
Averages and records for this station are not official NWS values.
T = Trace of Precipitation, MM = Missing Value Source: NWS Daily Summary

Daily Weather History Graph

Daily Weather History Graph

Search for Another Location

Airport:

Trip Planner

Search our weather history database for the weather conditions in past years. The results will help you decide how hot, cold, wet, or windy it might be!

Date:

Astronomy

Sep. 07, 2012 Rise Set
Actual Time 7:03 AM EDT 7:33 PM EDT
Civil Twilight 6:40 AM EDT 7:56 PM EDT
Nautical Twilight 6:13 AM EDT 8:23 PM EDT
Astronomical Twilight 5:45 AM EDT 8:51 PM EDT
Moon No Moon Rise 1:12 PM EDT (9/7)
Length of Visible Light 13h 16m
Length of Day
12h 29m
Waning Gibbous, 58% of the Moon is Illuminated
Sep 7
Waning Gibbous
Sep 8
Last Quarter
Sep 15
New
Sep 22
First Quarter
Sep 29
Full

Hourly Weather History & Observations

Time (EDT) Temp. Heat Index Dew Point Humidity Pressure Visibility Wind Dir Wind Speed Gust Speed Precip Events Conditions
12:53 AM 75.9 °F - 73.0 °F 91% 30.00 in 10.0 mi Calm Calm - N/A   Clear
1:53 AM 75.9 °F - 73.0 °F 91% 29.99 in 10.0 mi Calm Calm - N/A   Clear
2:53 AM 75.9 °F - 73.0 °F 91% 29.97 in 10.0 mi Calm Calm - N/A   Clear
3:53 AM 75.0 °F - 73.0 °F 94% 29.96 in 10.0 mi Calm Calm - N/A   Clear
4:53 AM 75.9 °F - 73.0 °F 91% 29.96 in 10.0 mi Calm Calm - N/A   Clear
5:53 AM 73.9 °F - 73.0 °F 97% 29.96 in 10.0 mi Calm Calm - N/A   Clear
6:53 AM 75.9 °F - 73.9 °F 94% 29.98 in 10.0 mi Calm Calm - N/A   Clear
7:53 AM 78.1 °F - 75.0 °F 90% 30.00 in 10.0 mi Calm Calm - N/A   Clear
8:53 AM 82.9 °F 90.2 °F 75.0 °F 77% 30.01 in 10.0 mi Calm Calm - N/A   Clear
9:53 AM 84.0 °F 91.9 °F 75.0 °F 74% 30.02 in 10.0 mi SSW 4.6 mph - N/A   Clear
10:53 AM 86.0 °F 93.8 °F 73.9 °F 67% 30.03 in 10.0 mi SSE 3.5 mph - N/A   Clear
11:53 AM 86.0 °F 93.8 °F 73.9 °F 67% 30.02 in 10.0 mi SE 8.1 mph - N/A   Mostly Cloudy
12:53 PM 80.1 °F 85.4 °F 75.9 °F 87% 30.01 in 6.0 mi East 12.7 mph - 0.25 in Rain Heavy Rain
1:12 PM 75.2 °F - 71.6 °F 89% 29.99 in 4.0 mi NNE 27.6 mph 35.7 mph 0.18 in Rain Heavy Rain
1:16 PM 75.2 °F - 69.8 °F 83% 30.00 in 2.0 mi North 23.0 mph 35.7 mph 0.38 in Rain , Thunderstorm Heavy Thunderstorms and Rain
1:22 PM 73.4 °F - 68.0 °F 83% 30.02 in 0.1 mi North 15.0 mph 41.4 mph 0.73 in Rain , Thunderstorm Heavy Thunderstorms and Rain
1:34 PM 73.4 °F - 68.0 °F 83% 30.03 in 0.5 mi NW 10.4 mph 35.7 mph 1.26 in Rain , Thunderstorm Heavy Thunderstorms and Rain
1:53 PM 73.0 °F - 71.1 °F 93% 30.02 in 1.2 mi WSW 18.4 mph 24.2 mph 1.90 in Rain , Thunderstorm Heavy Thunderstorms and Rain
2:04 PM 75.2 °F - 69.8 °F 83% 30.01 in 2.5 mi WSW 5.8 mph - 0.17 in Rain Heavy Rain
2:09 PM 75.2 °F - 69.8 °F 83% 30.00 in 4.0 mi Calm Calm - 0.18 in Rain Rain
2:19 PM 75.2 °F - 69.8 °F 83% 29.99 in 10.0 mi Calm Calm - 0.18 in Rain , Thunderstorm Light Thunderstorms and Rain
2:34 PM 78.8 °F - 71.6 °F 78% 29.98 in 10.0 mi ESE 4.6 mph - 0.18 in   Mostly Cloudy
2:53 PM 81.0 °F 85.8 °F 73.0 °F 77% 29.98 in 10.0 mi ESE 3.5 mph - 0.18 in Rain Light Rain
3:53 PM 84.0 °F 91.9 °F 75.0 °F 74% 29.96 in 10.0 mi South 4.6 mph - 0.00 in   Clear
4:53 PM 86.0 °F 93.8 °F 73.9 °F 67% 29.95 in 10.0 mi SSE 4.6 mph - N/A   Partly Cloudy
5:53 PM 84.9 °F 91.4 °F 73.0 °F 67% 29.94 in 10.0 mi South 6.9 mph - N/A   Partly Cloudy
6:53 PM 84.9 °F 92.1 °F 73.9 °F 69% 29.94 in 10.0 mi SSE 5.8 mph - N/A   Partly Cloudy
7:53 PM 82.0 °F 87.4 °F 73.0 °F 74% 29.96 in 10.0 mi South 5.8 mph - N/A   Partly Cloudy
8:53 PM 82.0 °F 87.4 °F 73.0 °F 74% 29.98 in 10.0 mi Calm Calm - 0.00 in   Mostly Cloudy
9:53 PM 81.0 °F 85.8 °F 73.0 °F 77% 29.99 in 10.0 mi SSE 3.5 mph - N/A   Clear
10:53 PM 80.1 °F 84.5 °F 73.9 °F 81% 30.00 in 10.0 mi Calm Calm - N/A   Clear
11:53 PM 80.1 °F 84.2 °F 73.0 °F 79% 29.99 in 10.0 mi Calm Calm - N/A   Clear